Regional Weather Roundup
Issued by NWS

Home | Current Version | Previous Version | Graphics & Text | Print | Product List | Glossary On
Versions: 1 2 3 4 5 6 7 8 9 10 11 12 13 14 15 16 17 18 19 20 21 22 23 24 25 26 27 28 29 30 31 32 33 34 35 36 37 38 39 40 41 42 43 44 45 46 47 48 49 50
000
ASUS43 KIND 050159
RWRIN

WEATHER ROUNDUP FOR INDIANA
NATIONAL WEATHER SERVICE INDIANAPOLIS IN
1000 PM EDT MON MAY 04 2015

NOTE: "FAIR" INDICATES FEW OR NO CLOUDS BELOW 12,000 FEET WITH NO
SIGNIFICANT WEATHER AND/OR OBSTRUCTIONS TO VISIBILITY.

* - STATION DOES NOT REPORT WEATHER SUCH AS PRECIPITATION OR FOG.

+ - STATION NOT QUALITY CONTROLLED BY THE NATIONAL WEATHER SERVICE.
    USE DATA WITH CAUTION...ESPECIALLY DEWPOINT AND RELATIVE
    HUMIDITY OBSERVATIONS.

INZ001>003-010>013-019-020-050300-
NORTHWEST INDIANA

CITY           SKY/WX    TMP DP  RH WIND       PRES   REMARKS
GARY /AIRPORT/ CLOUDY    52 N/A N/A NE7       30.18R
VALPARAISO     MOCLDY    62  56  80 NE5       30.18R

$$

LMZ046-743>745-050300-
SOUTHERN LAKE MICHIGAN

STATION/POSITION TIME  TEMP    WIND        PRES    WAVE
                       AIR SEA DIR/SP/G            HT
                 (UTC) (F)     (DEG/KT/KT) (MB)    (FT)
BURNS HARBOR     0100   52      60/  9/ 10 1022.4R
MICHIGAN CITY    0100   52      20/ 11/ 11   N/A
5NW MICH CITY    0100   50 50   80/  6/  8   N/A     1

$$

INZ004-005-014>016-021>024-050300-
NORTH CENTRAL INDIANA

CITY           SKY/WX    TMP DP  RH WIND       PRES   REMARKS
GOSHEN         CLOUDY    65  59  81 CALM      30.18R
SOUTH BEND     CLOUDY    64  56  75 NE3       30.19R

$$

INZ006>009-017-018-025>027-050300-
NORTHEAST INDIANA

CITY           SKY/WX    TMP DP  RH WIND       PRES   REMARKS
ANGOLA *+      CLEAR     64  61  88 CALM      30.19R
FORT WAYNE     CLOUDY    63  61  93 SW3       30.19R

$$

INZ028-029-035-036-043>045-051>053-050300-
WEST CENTRAL INDIANA

CITY           SKY/WX    TMP DP  RH WIND       PRES   REMARKS
CRAWFORDSVL +  CLOUDY    61  56  84 E9        30.16R
GREENCASTLE +  MOCLDY    63  55  77 E12       30.17S
LAFAYETTE      MOCLDY    60  60 100 NE5       30.15R FOG
TERRE HAUTE    CLOUDY    68  61  78 NE7       30.14R

$$

INZ030>032-037>040-046>048-054>057-064-065-050300-
CENTRAL INDIANA

CITY           SKY/WX    TMP DP  RH WIND       PRES   REMARKS
COLUMBUS       MOCLDY    64  63  94 CALM      30.16R
FRANKFORT +    CLOUDY    63  63 100 E7        30.18R
GREENWOOD *+   CLOUDY    66  61  82 NE8       30.19R
INDIANAPOLIS   CLOUDY    66  59  78 NE8       30.17R
-EAGLE CREEK   CLOUDY    64  58  80 E5        30.17R
KOKOMO *+      CLOUDY    63  61  94 E3        30.18R
MT COMFORT *+  CLOUDY    63 N/A N/A E6        30.19R
SHELBYVILLE    CLOUDY    66  61  84 NE8       30.18R

$$

INZ033-034-041-042-049-050-058-059-050300-
EAST CENTRAL INDIANA

CITY           SKY/WX    TMP DP  RH WIND       PRES   REMARKS
MUNCIE         LGT RAIN  63  61  93 W3        30.20R

$$

INZ060-061-067>069-081>083-085>088-050300-
SOUTHWEST INDIANA

CITY           SKY/WX    TMP DP  RH WIND       PRES   REMARKS
EVANSVILLE     CLEAR     73  55  53 S6        30.16R
HUNTINGBURG *+ PTCLDY    72  54  53 S5        30.17R

$$

INZ062-063-066-070>080-084-089>092-050300-
SOUTH CENTRAL AND SOUTHEAST INDIANA

CITY           SKY/WX    TMP DP  RH WIND       PRES   REMARKS
BLOOMINGTON    PTCLDY    66  56  70 CALM      30.16R
MADISON *+     PTCLDY    66  55  68 CALM      30.19S
SEYMOUR +      PTCLDY    70  57  64 SW5       30.16R

$$



USA.gov is the U.S. government's official web portal to all federal, state and local government web resources and services.